Location: Newark
(13.6797°N, 8.5297°E)
Time: 04:28:09
(UTC+00:00)

A-11 Canister half - Pass Details

Date: 19 January 2020
Orbit: 1517 x 1683 km, 47.2° (Epoch: 18 February)

Event Time Altitude Azimuth Distance (km) Brightness Sun altitude
Rises 22:23:17 0° 225° (SW) 4,807 11.8 -71.3°
Enters shadow 22:23:53 - 225° (SW) 4,617 11.7 -71.4°
Reaches altitude 10° 22:26:26 10° 226° (SW) 3,799 - -72.0°
Maximum altitude 22:36:03 78° 312° (NW) 1,583 - -74.1°
Drops below altitude 10° 22:45:22 10° 38° (NE) 3,688 - -76.1°
Sets 22:48:23 0° 40° (NE) 4,661 - -76.7°
